Location: Fuglau
(48.6333°N, 15.5500°E)
Time: 06:38:38
(UTC+00:00)

N. Korean satellite - Visible Passes

Search period start: 04 March 2021 00:00
Search period end: 14 March 2021 00:00
Orbit: 451 x 502 km, 97.2° (Epoch: 03 March)

Date Brightness Start Highest point End Pass type
(mag) Time Alt. Az. Time Alt. Az. Time Alt. Az.
04 Mar 9.8 03:25:35 10° NE 03:27:36 14° E 03:29:37 10° SE visible
04 Mar 6.8 04:57:45 10° N 05:01:08 45° WNW 05:04:34 10° SW visible
05 Mar 6.6 04:30:53 10° NNE 04:34:26 85° ESE 04:38:01 10° SSW visible
06 Mar 8.1 04:04:15 10° NNE 04:07:37 39° E 04:11:00 10° S visible
07 Mar 9.4 03:38:00 10° NE 03:40:42 20° E 03:43:25 10° SE visible
08 Mar 10.2 03:13:05 10° ENE 03:13:40 10° E 03:14:16 10° E visible
08 Mar 6.5 04:43:50 10° N 04:47:23 67° WNW 04:50:58 10° SSW visible
09 Mar 7.3 04:17:04 10° NNE 04:20:36 57° E 04:24:09 10° S visible
10 Mar 8.8 03:50:34 10° NE 03:53:42 28° E 03:56:52 10° SSE visible
11 Mar 9.8 03:24:37 10° NE 03:26:42 15° E 03:28:48 10° SE visible
12 Mar 6.7 04:29:52 10° NNE 04:33:29 83° ESE 04:37:08 10° SSW visible
13 Mar 8.1 04:03:12 10° NNE 04:06:38 39° E 04:10:03 10° SSE visible
